| time (UTC) | temp C | wind direction | speed KPH | gust KPH | rain 1hr cm | rain 24hr cm | rain mn cm | humidity % | barometer mb |
| 20260508180001 | 18 | 217 | 12.9 | 37.0 | 0.00 | 0.00 | 0.00 | 34 | 1013.1 |
| 20260508174604 | 20 | 194 | 17.7 | 40.2 | 0.00 | 0.00 | 0.00 | 34 | 1013.4 |
| 20260508173057 | 20 | 237 | 22.5 | 33.8 | 0.00 | 0.00 | 0.00 | 35 | 1013.5 |
| 20260508171555 | 19 | 206 | 14.5 | 40.2 | 0.00 | 0.00 | 0.00 | 35 | 1014.0 |
| 20260508170052 | 18 | 221 | 19.3 | 33.8 | 0.00 | 0.00 | 0.00 | 38 | 1014.0 |
| 20260508164551 | 18 | 196 | 12.9 | 41.8 | 0.00 | 0.00 | 0.00 | 39 | 1014.2 |
| 20260508163048 | 18 | 207 | 14.5 | 32.2 | 0.00 | 0.00 | 0.00 | 40 | 1014.6 |
| 20260508161547 | 17 | 196 | 12.9 | 33.8 | 0.00 | 0.00 | 0.00 | 40 | 1014.7 |
| 20260508160043 | 17 | 231 | 19.3 | 33.8 | 0.00 | 0.00 | 0.00 | 40 | 1014.9 |
| 20260508154541 | 17 | 269 | 19.3 | 33.8 | 0.00 | 0.00 | 0.00 | 42 | 1014.9 |
| 20260508153045 | 16 | 232 | 14.5 | 29.0 | 0.00 | 0.00 | 0.00 | 41 | 1015.3 |
| 20260508151536 | 16 | 229 | 22.5 | 29.0 | 0.00 | 0.00 | 0.00 | 43 | 1015.4 |
| 20260508150034 | 16 | 231 | 22.5 | 37.0 | 0.00 | 0.00 | 0.00 | 42 | 1015.5 |
| 20260508144532 | 15 | 227 | 17.7 | 33.8 | 0.00 | 0.00 | 0.00 | 44 | 1015.5 |
| 20260508143029 | 14 | 229 | 24.1 | 33.8 | 0.00 | 0.00 | 0.00 | 45 | 1015.7 |
| 20260508141524 | 13 | 201 | 17.7 | 32.2 | 0.00 | 0.00 | 0.00 | 46 | 1015.7 |
| 20260508140026 | 13 | 191 | 20.9 | 33.8 | 0.00 | 0.00 | 0.00 | 44 | 1015.7 |
| 20260508134517 | 13 | 229 | 20.9 | 30.6 | 0.00 | 0.00 | 0.00 | 45 | 1015.8 |
| 20260508133015 | 12 | 213 | 20.9 | 30.6 | 0.00 | 0.00 | 0.00 | 47 | 1015.9 |
| 20260508131511 | 12 | 228 | 14.5 | 27.4 | 0.00 | 0.00 | 0.00 | 50 | 1015.8 |
| 20260508130009 | 10 | 222 | 6.4 | 14.5 | 0.00 | 0.00 | 0.00 | 52 | 1016.0 |
| 20260508124507 | 9 | 200 | 8.0 | 17.7 | 0.00 | 0.00 | 0.00 | 53 | 1015.8 |
| 20260508123004 | 10 | 208 | 8.0 | 16.1 | 0.00 | 0.00 | 0.00 | 51 | 1016.1 |
| 20260508121602 | 10 | 202 | 8.0 | 19.3 | 0.00 | 0.00 | 0.00 | 52 | 1016.0 |
| 20260508120057 | 9 | 204 | 8.0 | 12.9 | 0.00 | 0.00 | 0.00 | 53 | 1015.7 |
| 20260508114553 | 8 | 194 | 6.4 | 12.9 | 0.00 | 0.00 | 0.00 | 55 | 1015.6 |
| 20260508113052 | 8 | 221 | 8.0 | 17.7 | 0.00 | 0.00 | 0.00 | 54 | 1015.6 |
| 20260508111554 | 7 | 211 | 9.7 | 14.5 | 0.00 | 0.00 | 0.00 | 54 | 1015.5 |
| 20260508110051 | 7 | 184 | 11.3 | 14.5 | 0.00 | 0.00 | 0.00 | 55 | 1015.3 |
| 20260508104548 | 6 | 205 | 4.8 | 12.9 | 0.00 | 0.00 | 0.00 | 57 | 1015.8 |
| 20260508103049 | 6 | 219 | 4.8 | 11.3 | 0.00 | 0.00 | 0.00 | 58 | 1015.4 |
| 20260508101548 | 6 | 218 | 8.0 | 12.9 | 0.00 | 0.00 | 0.00 | 57 | 1015.3 |
| 20260508100046 | 6 | 215 | 4.8 | 9.7 | 0.00 | 0.00 | 0.00 | 57 | 1015.2 |
| 20260508094551 | 6 | 209 | 8.0 | 12.9 | 0.00 | 0.00 | 0.00 | 57 | 1015.2 |
| 20260508093045 | 6 | 219 | 4.8 | 9.7 | 0.00 | 0.00 | 0.00 | 59 | 1015.3 |
| 20260508091543 | 6 | 220 | 8.0 | 11.3 | 0.00 | 0.00 | 0.00 | 59 | 1015.4 |
| 20260508090044 | 6 | 221 | 8.0 | 11.3 | 0.00 | 0.00 | 0.00 | 57 | 1015.3 |
| 20260508084542 | 6 | 223 | 8.0 | 12.9 | 0.00 | 0.00 | 0.00 | 58 | 1015.2 |
| 20260508083041 | 6 | 225 | 6.4 | 11.3 | 0.00 | 0.00 | 0.00 | 58 | 1015.1 |
| 20260508081543 | 6 | 220 | 6.4 | 11.3 | 0.00 | 0.00 | 0.00 | 59 | 1015.2 |
| 20260508080046 | 6 | 222 | 8.0 | 12.9 | 0.00 | 0.00 | 0.00 | 57 | 1015.1 |
| 20260508074538 | 6 | 212 | 8.0 | 11.3 | 0.00 | 0.00 | 0.00 | 56 | 1015.0 |
| 20260508073037 | 6 | 218 | 6.4 | 9.7 | 0.00 | 0.00 | 0.00 | 58 | 1015.1 |
| 20260508071535 | 6 | 218 | 8.0 | 12.9 | 0.00 | 0.00 | 0.00 | 57 | 1015.2 |
| 20260508070032 | 6 | 223 | 9.7 | 14.5 | 0.00 | 0.00 | 0.00 | 56 | 1015.3 |
| 20260508064529 | 6 | 215 | 11.3 | 17.7 | 0.00 | 0.00 | 0.00 | 57 | 1015.5 |
| 20260508063026 | 7 | 219 | 9.7 | 14.5 | 0.00 | 0.00 | 0.00 | 56 | 1015.5 |
| 20260508061527 | 7 | 207 | 6.4 | 14.5 | 0.00 | 0.00 | 0.00 | 54 | 1015.6 |
| 20260508060028 | 7 | 217 | 8.0 | 14.5 | 0.00 | 0.00 | 0.00 | 54 | 1015.6 |
| 20260508054524 | 7 | 225 | 9.7 | 16.1 | 0.00 | 0.00 | 0.00 | 53 | 1015.6 |
| 20260508053030 | 8 | 202 | 11.3 | 17.7 | 0.00 | 0.00 | 0.00 | 52 | 1015.6 |
| 20260508051528 | 7 | 205 | 8.0 | 16.1 | 0.00 | 0.00 | 0.00 | 53 | 1015.5 |
| 20260508050021 | 8 | 229 | 6.4 | 11.3 | 0.00 | 0.00 | 0.00 | 52 | 1015.5 |
| 20260508044518 | 7 | 191 | 11.3 | 14.5 | 0.00 | 0.00 | 0.00 | 54 | 1015.5 |
| 20260508043017 | 7 | 191 | 9.7 | 12.9 | 0.00 | 0.00 | 0.00 | 57 | 1015.5 |
| 20260508041513 | 7 | 192 | 9.7 | 12.9 | 0.00 | 0.00 | 0.00 | 56 | 1015.6 |
| 20260508040013 | 7 | 190 | 9.7 | 12.9 | 0.00 | 0.00 | 0.00 | 56 | 1015.6 |
| 20260508034510 | 7 | 194 | 9.7 | 11.3 | 0.00 | 0.00 | 0.00 | 57 | 1015.6 |
| 20260508033009 | 7 | 191 | 8.0 | 11.3 | 0.00 | 0.00 | 0.00 | 56 | 1015.5 |
| 20260508031508 | 7 | 184 | 4.8 | 8.0 | 0.00 | 0.00 | 0.00 | 57 | 1015.5 |
| 20260508030009 | 7 | 186 | 3.2 | 8.0 | 0.00 | 0.00 | 0.00 | 56 | 1015.5 |
| 20260508024510 | 7 | 183 | 3.2 | 8.0 | 0.00 | 0.00 | 0.00 | 55 | 1015.6 |
| 20260508023011 | 7 | 178 | 3.2 | 8.0 | 0.00 | 0.00 | 0.00 | 54 | 1015.7 |
| 20260508021507 | 7 | 194 | 4.8 | 6.4 | 0.00 | 0.00 | 0.00 | 55 | 1015.6 |
| 20260508020107 | 8 | 212 | 1.6 | 6.4 | 0.00 | 0.00 | 0.00 | 54 | 1015.8 |
| 20260508014505 | 8 | 221 | 1.6 | 3.2 | 0.00 | 0.00 | 0.00 | 52 | 1015.6 |
| 20260508013005 | 8 | 221 | 0.0 | 3.2 | 0.00 | 0.00 | 0.00 | 53 | 1015.5 |
| 20260508011504 | 8 | 221 | 0.0 | 3.2 | 0.00 | 0.00 | 0.00 | 52 | 1015.5 |
| 20260508010007 | 9 | 244 | 0.0 | 4.8 | 0.00 | 0.00 | 0.00 | 53 | 1015.4 |
| 20260508004503 | 10 | 247 | 1.6 | 4.8 | 0.00 | 0.00 | 0.00 | 46 | 1015.4 |
| 20260508003003 | 11 | 248 | 3.2 | 6.4 | 0.00 | 0.00 | 0.00 | 43 | 1015.4 |
| 20260508001502 | 12 | 274 | 0.0 | 4.8 | 0.00 | 0.00 | 0.00 | 35 | 1015.3 |
| 20260508000006 | 12 | 271 | 3.2 | 9.7 | 0.00 | 0.00 | 0.00 | 31 | 1015.2 |
| 20260507234504 | 13 | 265 | 3.2 | 9.7 | 0.00 | 0.00 | 0.00 | 29 | 1014.8 |
| 20260507233002 | 13 | 273 | 4.8 | 11.3 | 0.00 | 0.00 | 0.00 | 32 | 1014.8 |
| 20260507231606 | 13 | 321 | 4.8 | 9.7 | 0.00 | 0.00 | 0.00 | 29 | 1014.8 |
| 20260507230101 | 13 | 325 | 12.9 | 16.1 | 0.00 | 0.00 | 0.00 | 29 | 1014.9 |
| 20260507224602 | 13 | 321 | 6.4 | 14.5 | 0.00 | 0.00 | 0.00 | 32 | 1014.9 |
| 20260507223110 | 13 | 319 | 14.5 | 25.7 | 0.00 | 0.00 | 0.00 | 30 | 1015.0 |
| 20260507221557 | 14 | 259 | 6.4 | 17.7 | 0.00 | 0.00 | 0.00 | 28 | 1015.2 |
| 20260507220056 | 13 | 296 | 9.7 | 24.1 | 0.00 | 0.00 | 0.00 | 30 | 1015.3 |
| 20260507214559 | 14 | 271 | 9.7 | 24.1 | 0.00 | 0.00 | 0.00 | 30 | 1015.1 |
| 20260507213055 | 13 | 317 | 4.8 | 29.0 | 0.00 | 0.00 | 0.00 | 31 | 1015.1 |
| 20260507211553 | 13 | 306 | 12.9 | 27.4 | 0.00 | 0.00 | 0.00 | 33 | 1015.0 |
| 20260507210052 | 13 | 311 | 4.8 | 19.3 | 0.00 | 0.00 | 0.00 | 32 | 1015.0 |
| 20260507204551 | 13 | 329 | 8.0 | 25.7 | 0.00 | 0.00 | 0.00 | 31 | 1015.0 |
| 20260507203057 | 13 | 318 | 9.7 | 24.1 | 0.00 | 0.00 | 0.00 | 33 | 1014.9 |
| 20260507201549 | 13 | 344 | 14.5 | 27.4 | 0.00 | 0.00 | 0.00 | 30 | 1014.9 |
| 20260507200051 | 13 | 325 | 17.7 | 30.6 | 0.00 | 0.00 | 0.00 | 32 | 1014.8 |
| 20260507194547 | 13 | 325 | 8.0 | 20.9 | 0.00 | 0.00 | 0.00 | 34 | 1015.0 |
| 20260507193052 | 13 | 313 | 14.5 | 25.7 | 0.00 | 0.00 | 0.00 | 30 | 1015.1 |
| 20260507191544 | 13 | 264 | 14.5 | 25.7 | 0.00 | 0.00 | 0.00 | 35 | 1015.0 |
| 20260507190043 | 13 | 324 | 16.1 | 24.1 | 0.00 | 0.00 | 0.00 | 34 | 1015.1 |
| 20260507184544 | 13 | 327 | 14.5 | 24.1 | 0.00 | 0.00 | 0.00 | 31 | 1015.3 |
| 20260507183043 | 13 | 289 | 11.3 | 22.5 | 0.00 | 0.00 | 0.00 | 32 | 1015.0 |
| 20260507181537 | 13 | 306 | 8.0 | 20.9 | 0.00 | 0.00 | 0.00 | 35 | 1015.1 |